Location: *
(31.2983°S, 151.4094°E)
Time: 19:35:59
(UTC+00:00)

Shenzhou-11 Module - Pass Details

Date: 25 August 2019
Orbit: 314 x 326 km, 42.8° (Epoch: 18 October)

Event Time Altitude Azimuth Distance (km) Brightness Sun altitude
Exits shadow 18:50:06 31° 156° (SSE) 599 3.2 -19.6°
Drops below altitude 10° 18:51:53 10° 133° (SE) 1,246 5.3 -19.2°
Sets 18:53:56 0° 126° (SE) 2,088 6.6 -18.8°
